contact:dominique.lefevre@mio.osupytheas.fr, maurice.libes@osupytheas.fr, didier.mallarino@osupytheas.fr
Project:EMSO http://www.emso-fr.org/EMSO-France
Depth: 2436.0 m
Title:EMSO Ligure Ouest : Data MII capteur OXYGEN
DateTime,Latitude,Longitude,Optode-Type,Optode_Serial,Oxygen,Saturation_Oxygen,Temperature
DateTime,Latitude,Longitude,Optode-Type,Optode_Serial,µmol.l-1,%,degC
2017-11-23T00:01:02,42.805,6.029,4330,1995,195.409,59.760,13.289
2017-11-23T00:04:02,42.805,6.029,4330,1995,195.532,59.798,13.289
2017-11-23T00:07:02,42.805,6.029,4330,1995,195.435,59.769,13.290
2017-11-23T00:10:02,42.805,6.029,4330,1995,195.250,59.712,13.289
2017-11-23T00:13:02,42.805,6.029,4330,1995,195.375,59.749,13.289
2017-11-23T00:16:02,42.805,6.029,4330,1995,195.128,59.674,13.289
2017-11-23T00:19:02,42.805,6.029,4330,1995,194.836,59.585,13.289
2017-11-23T00:22:02,42.805,6.029,4330,1995,194.473,59.474,13.290
2017-11-23T00:25:02,42.805,6.029,4330,1995,194.562,59.501,13.289
2017-11-23T00:28:02,42.805,6.029,4330,1995,194.475,59.477,13.291
2017-11-23T00:31:02,42.805,6.029,4330,1995,194.331,59.431,13.289
2017-11-23T00:34:02,42.805,6.029,4330,1995,194.212,59.397,13.291
2017-11-23T00:37:02,42.805,6.029,4330,1995,194.195,59.392,13.292
2017-11-23T00:40:02,42.805,6.029,4330,1995,194.052,59.346,13.290
2017-11-23T00:43:02,42.805,6.029,4330,1995,194.027,59.339,13.290
2017-11-23T00:46:02,42.805,6.029,4330,1995,194.059,59.348,13.290
2017-11-23T00:49:02,42.805,6.029,4330,1995,194.121,59.367,13.290
2017-11-23T00:52:02,42.805,6.029,4330,1995,194.217,59.396,13.290
2017-11-23T00:55:02,42.805,6.029,4330,1995,194.349,59.438,13.290
2017-11-23T00:58:02,42.805,6.029,4330,1995,194.421,59.458,13.289
2017-11-23T01:01:02,42.805,6.029,4330,1995,194.446,59.466,13.289
2017-11-23T01:04:02,42.805,6.029,4330,1995,194.461,59.470,13.289
2017-11-23T01:07:02,42.805,6.029,4330,1995,194.676,59.536,13.289
2017-11-23T01:10:02,42.805,6.029,4330,1995,195.005,59.636,13.289
2017-11-23T01:13:02,42.805,6.029,4330,1995,194.699,59.544,13.290
2017-11-23T01:16:02,42.805,6.029,4330,1995,194.497,59.481,13.289
2017-11-23T01:19:02,42.805,6.029,4330,1995,194.653,59.530,13.290
2017-11-23T01:22:02,42.805,6.029,4330,1995,194.613,59.516,13.289
2017-11-23T01:25:02,42.805,6.029,4330,1995,194.525,59.489,13.288
2017-11-23T01:28:02,42.805,6.029,4330,1995,194.555,59.499,13.289
2017-11-23T01:31:02,42.805,6.029,4330,1995,194.387,59.448,13.289
2017-11-23T01:34:02,42.805,6.029,4330,1995,194.282,59.417,13.290
2017-11-23T01:37:02,42.805,6.029,4330,1995,194.238,59.403,13.290
2017-11-23T01:40:02,42.805,6.029,4330,1995,194.198,59.391,13.290
2017-11-23T01:43:02,42.805,6.029,4330,1995,194.229,59.400,13.290
2017-11-23T01:46:02,42.805,6.029,4330,1995,194.007,59.333,13.291
2017-11-23T01:49:02,42.805,6.029,4330,1995,193.970,59.322,13.291
2017-11-23T01:52:02,42.805,6.029,4330,1995,194.025,59.337,13.289
2017-11-23T01:55:02,42.805,6.029,4330,1995,193.808,59.274,13.291
2017-11-23T01:58:02,42.805,6.029,4330,1995,193.557,59.195,13.290
2017-11-23T02:01:02,42.805,6.029,4330,1995,193.611,59.213,13.291
2017-11-23T02:04:02,42.805,6.029,4330,1995,193.625,59.217,13.291
2017-11-23T02:07:02,42.805,6.029,4330,1995,193.756,59.255,13.290
2017-11-23T02:10:02,42.805,6.029,4330,1995,194.018,59.335,13.290
2017-11-23T02:13:02,42.805,6.029,4330,1995,194.150,59.376,13.290
2017-11-23T02:16:02,42.805,6.029,4330,1995,194.112,59.364,13.290
2017-11-23T02:19:02,42.805,6.029,4330,1995,194.078,59.355,13.291
2017-11-23T02:22:02,42.805,6.029,4330,1995,194.028,59.339,13.290
2017-11-23T02:25:02,42.805,6.029,4330,1995,194.058,59.351,13.292
2017-11-23T02:28:02,42.805,6.029,4330,1995,193.794,59.269,13.291
2017-11-23T02:31:02,42.805,6.029,4330,1995,193.802,59.268,13.289
2017-11-23T02:34:02,42.805,6.029,4330,1995,194.071,59.350,13.288
2017-11-23T02:37:02,42.805,6.029,4330,1995,194.519,59.487,13.288
2017-11-23T02:40:02,42.805,6.029,4330,1995,194.930,59.611,13.287
2017-11-23T02:43:02,42.805,6.029,4330,1995,195.184,59.689,13.288
2017-11-23T02:46:02,42.805,6.029,4330,1995,195.243,59.708,13.288
2017-11-23T02:49:02,42.805,6.029,4330,1995,195.297,59.725,13.288
2017-11-23T02:52:02,42.805,6.029,4330,1995,195.295,59.724,13.288
2017-11-23T02:55:02,42.805,6.029,4330,1995,195.318,59.730,13.288
2017-11-23T02:58:02,42.805,6.029,4330,1995,195.218,59.700,13.288
2017-11-23T03:01:02,42.805,6.029,4330,1995,195.065,59.656,13.290
2017-11-23T03:04:02,42.805,6.029,4330,1995,195.163,59.689,13.292
2017-11-23T03:07:02,42.805,6.029,4330,1995,195.032,59.643,13.287
2017-11-23T03:10:02,42.805,6.029,4330,1995,194.898,59.601,13.287
2017-11-23T03:13:02,42.805,6.029,4330,1995,194.706,59.543,13.287
2017-11-23T03:16:02,42.805,6.029,4330,1995,194.668,59.531,13.287
2017-11-23T03:19:02,42.805,6.029,4330,1995,194.723,59.547,13.287
2017-11-23T03:22:02,42.805,6.029,4330,1995,194.800,59.571,13.287
2017-11-23T03:25:02,42.805,6.029,4330,1995,194.972,59.623,13.286
2017-11-23T03:28:02,42.805,6.029,4330,1995,195.258,59.710,13.286
2017-11-23T03:31:02,42.805,6.029,4330,1995,195.365,59.743,13.286
2017-11-23T03:34:01,42.805,6.029,4330,1995,195.466,59.774,13.286
2017-11-23T03:37:01,42.805,6.029,4330,1995,195.539,59.796,13.286
2017-11-23T03:40:01,42.805,6.029,4330,1995,195.639,59.827,13.286
2017-11-23T03:43:01,42.805,6.029,4330,1995,195.744,59.859,13.286
2017-11-23T03:46:01,42.805,6.029,4330,1995,195.810,59.879,13.286
2017-11-23T03:49:01,42.805,6.029,4330,1995,195.757,59.863,13.286
2017-11-23T03:52:01,42.805,6.029,4330,1995,195.525,59.792,13.286
2017-11-23T03:55:01,42.805,6.029,4330,1995,195.405,59.755,13.286
2017-11-23T03:58:01,42.805,6.029,4330,1995,195.390,59.751,13.286
2017-11-23T04:01:01,42.805,6.029,4330,1995,195.370,59.745,13.286
2017-11-23T04:04:01,42.805,6.029,4330,1995,195.430,59.763,13.286
2017-11-23T04:07:01,42.805,6.029,4330,1995,195.449,59.769,13.286
2017-11-23T04:10:01,42.805,6.029,4330,1995,195.450,59.769,13.286
2017-11-23T04:13:01,42.805,6.029,4330,1995,195.504,59.785,13.286
2017-11-23T04:16:01,42.805,6.029,4330,1995,195.706,59.847,13.286
2017-11-23T04:19:01,42.805,6.029,4330,1995,195.784,59.871,13.286
2017-11-23T04:22:01,42.805,6.029,4330,1995,195.758,59.863,13.286
2017-11-23T04:25:01,42.805,6.029,4330,1995,195.648,59.829,13.286
2017-11-23T04:28:01,42.805,6.029,4330,1995,195.705,59.847,13.286
2017-11-23T04:31:01,42.805,6.029,4330,1995,195.765,59.865,13.286
2017-11-23T04:34:01,42.805,6.029,4330,1995,195.696,59.844,13.286
2017-11-23T04:37:01,42.805,6.029,4330,1995,195.797,59.875,13.286
2017-11-23T04:40:01,42.805,6.029,4330,1995,195.842,59.889,13.286
2017-11-23T04:43:01,42.805,6.029,4330,1995,195.933,59.916,13.286
2017-11-23T04:46:01,42.805,6.029,4330,1995,195.986,59.933,13.286
2017-11-23T04:49:01,42.805,6.029,4330,1995,196.124,59.975,13.286
2017-11-23T04:52:01,42.805,6.029,4330,1995,196.115,59.972,13.286
2017-11-23T04:55:01,42.805,6.029,4330,1995,196.064,59.956,13.286
2017-11-23T04:58:01,42.805,6.029,4330,1995,196.064,59.956,13.286
2017-11-23T05:01:01,42.805,6.029,4330,1995,196.183,59.993,13.286
2017-11-23T05:04:01,42.805,6.029,4330,1995,195.980,59.931,13.286
2017-11-23T05:07:01,42.805,6.029,4330,1995,196.049,59.952,13.286
2017-11-23T05:10:01,42.805,6.029,4330,1995,196.080,59.961,13.286
2017-11-23T05:13:01,42.805,6.029,4330,1995,196.096,59.966,13.286
2017-11-23T05:16:01,42.805,6.029,4330,1995,196.134,59.978,13.286
2017-11-23T05:19:01,42.805,6.029,4330,1995,196.195,59.996,13.286
2017-11-23T05:22:01,42.805,6.029,4330,1995,196.222,60.005,13.286
2017-11-23T05:25:01,42.805,6.029,4330,1995,196.241,60.010,13.286
2017-11-23T05:28:01,42.805,6.029,4330,1995,196.272,60.020,13.286
2017-11-23T05:31:01,42.805,6.029,4330,1995,196.296,60.027,13.286
2017-11-23T05:34:01,42.805,6.029,4330,1995,196.371,60.050,13.286
2017-11-23T05:37:01,42.805,6.029,4330,1995,196.322,60.035,13.286
2017-11-23T05:40:01,42.805,6.029,4330,1995,196.338,60.040,13.286
2017-11-23T05:43:01,42.805,6.029,4330,1995,196.451,60.074,13.286
2017-11-23T05:46:01,42.805,6.029,4330,1995,196.364,60.048,13.286
2017-11-23T05:49:01,42.805,6.029,4330,1995,196.358,60.046,13.286
2017-11-23T05:52:01,42.805,6.029,4330,1995,196.395,60.057,13.286
2017-11-23T05:55:01,42.805,6.029,4330,1995,196.385,60.054,13.286
2017-11-23T05:58:01,42.805,6.029,4330,1995,196.467,60.079,13.286
2017-11-23T06:01:01,42.805,6.029,4330,1995,196.448,60.073,13.286
2017-11-23T06:04:01,42.805,6.029,4330,1995,196.416,60.064,13.286
2017-11-23T06:07:01,42.805,6.029,4330,1995,196.478,60.083,13.286
2017-11-23T06:10:01,42.805,6.029,4330,1995,196.499,60.089,13.286
2017-11-23T06:13:01,42.805,6.029,4330,1995,196.488,60.086,13.286
2017-11-23T06:16:01,42.805,6.029,4330,1995,196.523,60.096,13.286
2017-11-23T06:19:01,42.805,6.029,4330,1995,196.559,60.107,13.286
2017-11-23T06:22:01,42.805,6.029,4330,1995,196.491,60.087,13.286
2017-11-23T06:25:01,42.805,6.029,4330,1995,196.521,60.096,13.286
2017-11-23T06:28:01,42.805,6.029,4330,1995,196.544,60.103,13.286
2017-11-23T06:31:01,42.805,6.029,4330,1995,196.516,60.094,13.286
2017-11-23T06:34:01,42.805,6.029,4330,1995,196.407,60.061,13.286
2017-11-23T06:37:01,42.805,6.029,4330,1995,196.488,60.085,13.286
2017-11-23T06:40:01,42.805,6.029,4330,1995,196.560,60.108,13.286
2017-11-23T06:43:01,42.805,6.029,4330,1995,196.583,60.115,13.286
2017-11-23T06:46:01,42.805,6.029,4330,1995,196.685,60.146,13.285
2017-11-23T06:49:01,42.805,6.029,4330,1995,196.676,60.143,13.286
2017-11-23T06:52:01,42.805,6.029,4330,1995,196.651,60.135,13.286
2017-11-23T06:55:01,42.805,6.029,4330,1995,196.707,60.152,13.285
2017-11-23T06:58:01,42.805,6.029,4330,1995,196.623,60.127,13.285
2017-11-23T07:01:01,42.805,6.029,4330,1995,196.670,60.141,13.285
2017-11-23T07:04:01,42.805,6.029,4330,1995,196.619,60.126,13.286
2017-11-23T07:07:01,42.805,6.029,4330,1995,196.486,60.085,13.286
2017-11-23T07:10:01,42.805,6.029,4330,1995,196.608,60.122,13.286
2017-11-23T07:13:01,42.805,6.029,4330,1995,196.614,60.124,13.285
2017-11-23T07:16:01,42.805,6.029,4330,1995,196.687,60.146,13.286
2017-11-23T07:19:01,42.805,6.029,4330,1995,196.673,60.142,13.285
2017-11-23T07:22:01,42.805,6.029,4330,1995,196.721,60.157,13.286
2017-11-23T07:25:01,42.805,6.029,4330,1995,196.742,60.163,13.285
2017-11-23T07:28:01,42.805,6.029,4330,1995,196.754,60.167,13.285
2017-11-23T07:31:01,42.805,6.029,4330,1995,196.771,60.172,13.286
2017-11-23T07:34:01,42.805,6.029,4330,1995,196.831,60.190,13.285
2017-11-23T07:37:01,42.805,6.029,4330,1995,196.808,60.183,13.285
2017-11-23T07:40:01,42.805,6.029,4330,1995,196.774,60.173,13.285
2017-11-23T07:43:01,42.805,6.029,4330,1995,196.878,60.205,13.286
2017-11-23T07:46:01,42.805,6.029,4330,1995,196.871,60.203,13.286
2017-11-23T07:49:01,42.805,6.029,4330,1995,196.869,60.202,13.285
2017-11-23T07:52:01,42.805,6.029,4330,1995,196.949,60.226,13.285
2017-11-23T07:55:01,42.805,6.029,4330,1995,196.941,60.224,13.286
2017-11-23T07:58:01,42.805,6.029,4330,1995,196.982,60.237,13.286
2017-11-23T08:01:01,42.805,6.029,4330,1995,197.064,60.262,13.286
2017-11-23T08:04:01,42.805,6.029,4330,1995,197.044,60.256,13.286
2017-11-23T08:07:01,42.805,6.029,4330,1995,197.077,60.265,13.285
2017-11-23T08:10:01,42.805,6.029,4330,1995,197.112,60.276,13.285
2017-11-23T08:13:01,42.805,6.029,4330,1995,197.143,60.285,13.285
2017-11-23T08:16:01,42.805,6.029,4330,1995,197.173,60.295,13.286
2017-11-23T08:19:01,42.805,6.029,4330,1995,197.217,60.308,13.285
2017-11-23T08:22:01,42.805,6.029,4330,1995,197.260,60.321,13.285
2017-11-23T08:25:01,42.805,6.029,4330,1995,197.356,60.351,13.285
2017-11-23T08:28:01,42.805,6.029,4330,1995,197.413,60.368,13.285
2017-11-23T08:31:01,42.805,6.029,4330,1995,197.476,60.387,13.285
2017-11-23T08:34:01,42.805,6.029,4330,1995,197.524,60.402,13.285
2017-11-23T08:37:01,42.805,6.029,4330,1995,197.464,60.384,13.286
2017-11-23T08:40:01,42.805,6.029,4330,1995,197.501,60.395,13.285
2017-11-23T08:43:01,42.805,6.029,4330,1995,197.565,60.415,13.285
2017-11-23T08:46:01,42.805,6.029,4330,1995,197.602,60.426,13.285
2017-11-23T08:49:01,42.805,6.029,4330,1995,197.585,60.421,13.285
2017-11-23T08:52:01,42.805,6.029,4330,1995,197.661,60.444,13.285
2017-11-23T08:55:01,42.805,6.029,4330,1995,197.742,60.469,13.285
2017-11-23T08:58:01,42.805,6.029,4330,1995,197.880,60.511,13.285
2017-11-23T09:01:01,42.805,6.029,4330,1995,197.893,60.515,13.285
2017-11-23T09:04:01,42.805,6.029,4330,1995,197.915,60.522,13.285
2017-11-23T09:07:01,42.805,6.029,4330,1995,197.979,60.541,13.285
2017-11-23T09:10:01,42.805,6.029,4330,1995,198.025,60.556,13.286
2017-11-23T09:13:01,42.805,6.029,4330,1995,197.942,60.530,13.285
2017-11-23T09:16:01,42.805,6.029,4330,1995,197.883,60.512,13.285
2017-11-23T09:19:01,42.805,6.029,4330,1995,198.012,60.551,13.285
2017-11-23T09:22:01,42.805,6.029,4330,1995,198.054,60.564,13.286
2017-11-23T09:25:01,42.805,6.029,4330,1995,198.097,60.577,13.285
2017-11-23T09:28:01,42.805,6.029,4330,1995,198.166,60.598,13.285
2017-11-23T09:31:01,42.805,6.029,4330,1995,198.176,60.601,13.285
2017-11-23T09:34:01,42.805,6.029,4330,1995,198.080,60.572,13.285
2017-11-23T09:37:01,42.805,6.029,4330,1995,198.095,60.577,13.285
2017-11-23T09:40:01,42.805,6.029,4330,1995,198.139,60.590,13.285
2017-11-23T09:43:01,42.805,6.029,4330,1995,198.067,60.568,13.285
2017-11-23T09:46:01,42.805,6.029,4330,1995,198.058,60.565,13.285
2017-11-23T09:49:01,42.805,6.029,4330,1995,198.108,60.580,13.285
2017-11-23T09:52:01,42.805,6.029,4330,1995,198.026,60.555,13.285
2017-11-23T09:55:01,42.805,6.029,4330,1995,198.040,60.560,13.285
2017-11-23T09:58:01,42.805,6.029,4330,1995,198.066,60.568,13.285
2017-11-23T10:01:01,42.805,6.029,4330,1995,198.216,60.613,13.285
2017-11-23T10:04:01,42.805,6.029,4330,1995,198.243,60.622,13.285
2017-11-23T10:07:01,42.805,6.029,4330,1995,198.265,60.629,13.285
2017-11-23T10:10:01,42.805,6.029,4330,1995,198.292,60.637,13.285
2017-11-23T10:13:01,42.805,6.029,4330,1995,198.318,60.645,13.285
2017-11-23T10:16:01,42.805,6.029,4330,1995,198.303,60.640,13.285
2017-11-23T10:19:01,42.805,6.029,4330,1995,198.274,60.631,13.285
2017-11-23T10:22:01,42.805,6.029,4330,1995,198.349,60.654,13.285
2017-11-23T10:25:01,42.805,6.029,4330,1995,198.316,60.644,13.285
2017-11-23T10:28:01,42.805,6.029,4330,1995,198.348,60.654,13.285
2017-11-23T10:31:01,42.805,6.029,4330,1995,198.274,60.631,13.285
2017-11-23T10:34:01,42.805,6.029,4330,1995,198.328,60.648,13.285
2017-11-23T10:37:01,42.805,6.029,4330,1995,198.314,60.644,13.285
2017-11-23T10:40:01,42.805,6.029,4330,1995,198.252,60.625,13.285
2017-11-23T10:43:01,42.805,6.029,4330,1995,198.316,60.644,13.285
2017-11-23T10:46:01,42.805,6.029,4330,1995,198.338,60.651,13.285
2017-11-23T10:49:01,42.805,6.029,4330,1995,198.361,60.658,13.285
2017-11-23T10:52:01,42.805,6.029,4330,1995,198.418,60.676,13.285
2017-11-23T10:55:01,42.805,6.029,4330,1995,198.403,60.671,13.285
2017-11-23T10:58:01,42.805,6.029,4330,1995,198.387,60.666,13.285
2017-11-23T11:01:01,42.805,6.029,4330,1995,198.414,60.675,13.286
2017-11-23T11:04:01,42.805,6.029,4330,1995,198.421,60.677,13.286
2017-11-23T11:07:01,42.805,6.029,4330,1995,198.389,60.667,13.285
2017-11-23T11:10:01,42.805,6.029,4330,1995,198.406,60.672,13.285
2017-11-23T11:13:01,42.805,6.029,4330,1995,198.438,60.682,13.286
2017-11-23T11:16:01,42.805,6.029,4330,1995,198.437,60.682,13.286
2017-11-23T11:19:01,42.805,6.029,4330,1995,198.363,60.659,13.285
2017-11-23T11:22:01,42.805,6.029,4330,1995,198.339,60.652,13.286
2017-11-23T11:25:01,42.805,6.029,4330,1995,198.353,60.656,13.286
2017-11-23T11:28:01,42.805,6.029,4330,1995,198.309,60.643,13.286
2017-11-23T11:31:01,42.805,6.029,4330,1995,198.329,60.649,13.286
2017-11-23T11:34:01,42.805,6.029,4330,1995,198.258,60.627,13.286
2017-11-23T11:37:01,42.805,6.029,4330,1995,198.232,60.619,13.286
2017-11-23T11:40:01,42.805,6.029,4330,1995,198.204,60.611,13.286
2017-11-23T11:43:01,42.805,6.029,4330,1995,198.140,60.592,13.286
2017-11-23T11:46:01,42.805,6.029,4330,1995,198.107,60.582,13.286
2017-11-23T11:49:01,42.805,6.029,4330,1995,198.062,60.568,13.286
2017-11-23T11:52:01,42.805,6.029,4330,1995,198.141,60.592,13.286
2017-11-23T11:55:01,42.805,6.029,4330,1995,198.051,60.564,13.286
2017-11-23T11:58:01,42.805,6.029,4330,1995,198.004,60.550,13.286
2017-11-23T12:01:01,42.805,6.029,4330,1995,197.942,60.531,13.286
2017-11-23T12:04:01,42.805,6.029,4330,1995,197.946,60.532,13.286
2017-11-23T12:07:01,42.805,6.029,4330,1995,197.926,60.526,13.286
2017-11-23T12:10:01,42.805,6.029,4330,1995,197.901,60.519,13.286
2017-11-23T12:13:01,42.805,6.029,4330,1995,197.895,60.517,13.286
2017-11-23T12:16:01,42.805,6.029,4330,1995,197.899,60.518,13.286
2017-11-23T12:19:01,42.805,6.029,4330,1995,197.859,60.505,13.286
2017-11-23T12:22:01,42.805,6.029,4330,1995,197.902,60.519,13.286
2017-11-23T12:25:01,42.805,6.029,4330,1995,197.855,60.505,13.286
2017-11-23T12:28:01,42.805,6.029,4330,1995,197.788,60.484,13.286
2017-11-23T12:31:01,42.805,6.029,4330,1995,197.742,60.470,13.286
2017-11-23T12:34:01,42.805,6.029,4330,1995,197.787,60.484,13.286
2017-11-23T12:37:01,42.805,6.029,4330,1995,197.730,60.466,13.286
2017-11-23T12:40:01,42.805,6.029,4330,1995,197.699,60.456,13.286
2017-11-23T12:43:01,42.805,6.029,4330,1995,197.725,60.465,13.286
2017-11-23T12:46:01,42.805,6.029,4330,1995,197.680,60.451,13.286
2017-11-23T12:49:01,42.805,6.029,4330,1995,197.692,60.455,13.286
2017-11-23T12:52:01,42.805,6.029,4330,1995,197.589,60.424,13.287
2017-11-23T12:55:01,42.805,6.029,4330,1995,197.577,60.420,13.286
2017-11-23T12:58:01,42.805,6.029,4330,1995,197.618,60.432,13.287
2017-11-23T13:01:01,42.805,6.029,4330,1995,197.578,60.420,13.286
2017-11-23T13:04:01,42.805,6.029,4330,1995,197.601,60.427,13.286
2017-11-23T13:07:01,42.805,6.029,4330,1995,197.527,60.404,13.287
2017-11-23T13:10:01,42.805,6.029,4330,1995,197.453,60.382,13.286
2017-11-23T13:13:01,42.805,6.029,4330,1995,197.457,60.383,13.286
2017-11-23T13:16:01,42.805,6.029,4330,1995,197.467,60.386,13.286
2017-11-23T13:19:01,42.805,6.029,4330,1995,197.375,60.358,13.287
2017-11-23T13:22:01,42.805,6.029,4330,1995,197.385,60.361,13.286
2017-11-23T13:25:01,42.805,6.029,4330,1995,197.382,60.360,13.286
2017-11-23T13:28:01,42.805,6.029,4330,1995,197.318,60.340,13.286
2017-11-23T13:31:01,42.805,6.029,4330,1995,197.379,60.359,13.287
2017-11-23T13:34:01,42.805,6.029,4330,1995,197.420,60.371,13.286
2017-11-23T13:37:01,42.805,6.029,4330,1995,197.383,60.360,13.286
2017-11-23T13:40:01,42.805,6.029,4330,1995,197.351,60.351,13.286
2017-11-23T13:43:01,42.805,6.029,4330,1995,197.266,60.325,13.286
2017-11-23T13:46:01,42.805,6.029,4330,1995,197.206,60.306,13.287
2017-11-23T13:49:01,42.805,6.029,4330,1995,197.124,60.282,13.287
2017-11-23T13:52:01,42.805,6.029,4330,1995,197.250,60.319,13.286
2017-11-23T13:55:01,42.805,6.029,4330,1995,197.256,60.321,13.286
2017-11-23T13:58:01,42.805,6.029,4330,1995,197.230,60.314,13.286
2017-11-23T14:01:01,42.805,6.029,4330,1995,197.256,60.322,13.286
2017-11-23T14:04:01,42.805,6.029,4330,1995,197.200,60.304,13.287
2017-11-23T14:07:01,42.805,6.029,4330,1995,197.257,60.322,13.287
2017-11-23T14:10:01,42.805,6.029,4330,1995,197.176,60.298,13.287
2017-11-23T14:13:01,42.805,6.029,4330,1995,197.096,60.273,13.287
2017-11-23T14:16:01,42.805,6.029,4330,1995,197.052,60.260,13.287
2017-11-23T14:19:01,42.805,6.029,4330,1995,197.017,60.250,13.287
2017-11-23T14:22:01,42.805,6.029,4330,1995,197.016,60.249,13.287
2017-11-23T14:25:01,42.805,6.029,4330,1995,196.978,60.237,13.287
2017-11-23T14:28:01,42.805,6.029,4330,1995,196.957,60.231,13.287
2017-11-23T14:31:01,42.805,6.029,4330,1995,196.793,60.181,13.287
2017-11-23T14:34:01,42.805,6.029,4330,1995,196.798,60.182,13.287
2017-11-23T14:37:01,42.805,6.029,4330,1995,196.783,60.178,13.287
2017-11-23T14:40:01,42.805,6.029,4330,1995,196.704,60.154,13.287
2017-11-23T14:43:01,42.805,6.029,4330,1995,196.677,60.146,13.287
2017-11-23T14:46:01,42.805,6.029,4330,1995,196.653,60.138,13.287
2017-11-23T14:49:01,42.805,6.029,4330,1995,196.713,60.156,13.287
2017-11-23T14:52:01,42.805,6.029,4330,1995,196.662,60.140,13.287
2017-11-23T14:55:01,42.805,6.029,4330,1995,196.647,60.136,13.287
2017-11-23T14:58:01,42.805,6.029,4330,1995,196.601,60.122,13.287
2017-11-23T15:01:01,42.805,6.029,4330,1995,196.559,60.111,13.288
2017-11-23T15:04:01,42.805,6.029,4330,1995,196.502,60.092,13.287
2017-11-23T15:07:01,42.805,6.029,4330,1995,196.469,60.082,13.287
2017-11-23T15:10:01,42.805,6.029,4330,1995,196.474,60.084,13.288
2017-11-23T15:13:01,42.805,6.029,4330,1995,196.477,60.084,13.287
2017-11-23T15:16:01,42.805,6.029,4330,1995,196.411,60.064,13.287
2017-11-23T15:19:01,42.805,6.029,4330,1995,196.354,60.047,13.287
2017-11-23T15:22:01,42.805,6.029,4330,1995,196.353,60.046,13.287
2017-11-23T15:25:01,42.805,6.029,4330,1995,196.311,60.033,13.287
2017-11-23T15:28:01,42.805,6.029,4330,1995,196.221,60.007,13.288
2017-11-23T15:31:01,42.805,6.029,4330,1995,196.260,60.019,13.288
2017-11-23T15:34:01,42.805,6.029,4330,1995,196.240,60.013,13.288
2017-11-23T15:37:01,42.805,6.029,4330,1995,196.201,60.000,13.287
2017-11-23T15:40:01,42.805,6.029,4330,1995,196.219,60.006,13.288
2017-11-23T15:43:01,42.805,6.029,4330,1995,196.128,59.977,13.287
2017-11-23T15:46:01,42.805,6.029,4330,1995,196.029,59.947,13.287
2017-11-23T15:49:01,42.805,6.029,4330,1995,196.059,59.958,13.288
2017-11-23T15:52:01,42.805,6.029,4330,1995,196.135,59.980,13.287
2017-11-23T15:55:01,42.805,6.029,4330,1995,196.136,59.980,13.287
2017-11-23T15:58:01,42.805,6.029,4330,1995,196.054,59.955,13.288
2017-11-23T16:01:01,42.805,6.029,4330,1995,196.054,59.956,13.288
2017-11-23T16:04:01,42.805,6.029,4330,1995,196.002,59.940,13.288
2017-11-23T16:07:01,42.805,6.029,4330,1995,196.028,59.948,13.288
2017-11-23T16:10:01,42.805,6.029,4330,1995,195.947,59.923,13.288
2017-11-23T16:13:01,42.805,6.029,4330,1995,195.868,59.898,13.287
2017-11-23T16:16:01,42.805,6.029,4330,1995,195.852,59.893,13.287
2017-11-23T16:19:01,42.805,6.029,4330,1995,196.025,59.946,13.287
2017-11-23T16:22:01,42.805,6.029,4330,1995,196.290,60.027,13.287
2017-11-23T16:25:01,42.805,6.029,4330,1995,196.473,60.083,13.287
2017-11-23T16:28:01,42.805,6.029,4330,1995,196.412,60.064,13.287
2017-11-23T16:31:01,42.805,6.029,4330,1995,196.486,60.087,13.287
2017-11-23T16:34:01,42.805,6.029,4330,1995,196.453,60.077,13.287
2017-11-23T16:37:01,42.805,6.029,4330,1995,196.421,60.068,13.288
2017-11-23T16:40:01,42.805,6.029,4330,1995,196.394,60.059,13.287
2017-11-23T16:43:01,42.805,6.029,4330,1995,196.440,60.073,13.287
2017-11-23T16:46:01,42.805,6.029,4330,1995,196.423,60.067,13.287
2017-11-23T16:49:01,42.805,6.029,4330,1995,196.548,60.106,13.287
2017-11-23T16:52:01,42.805,6.029,4330,1995,196.505,60.093,13.287
2017-11-23T16:55:01,42.805,6.029,4330,1995,196.516,60.096,13.287
2017-11-23T16:58:01,42.805,6.029,4330,1995,196.551,60.106,13.287
2017-11-23T17:01:01,42.805,6.029,4330,1995,196.498,60.091,13.287
2017-11-23T17:04:01,42.805,6.029,4330,1995,196.376,60.054,13.288
2017-11-23T17:07:01,42.805,6.029,4330,1995,196.360,60.048,13.287
2017-11-23T17:10:01,42.805,6.029,4330,1995,196.509,60.094,13.287
2017-11-23T17:13:01,42.805,6.029,4330,1995,196.506,60.093,13.287
2017-11-23T17:16:01,42.805,6.029,4330,1995,196.521,60.097,13.287
2017-11-23T17:19:01,42.805,6.029,4330,1995,196.569,60.112,13.287
2017-11-23T17:22:01,42.805,6.029,4330,1995,196.573,60.113,13.287
2017-11-23T17:25:01,42.805,6.029,4330,1995,196.488,60.087,13.287
2017-11-23T17:28:01,42.805,6.029,4330,1995,196.343,60.044,13.288
2017-11-23T17:31:01,42.805,6.029,4330,1995,196.349,60.046,13.288
2017-11-23T17:34:01,42.805,6.029,4330,1995,196.254,60.017,13.288
2017-11-23T17:37:01,42.805,6.029,4330,1995,196.191,59.998,13.288
2017-11-23T17:40:01,42.805,6.029,4330,1995,196.145,59.983,13.287
2017-11-23T17:43:01,42.805,6.029,4330,1995,196.198,60.000,13.288
2017-11-23T17:46:01,42.805,6.029,4330,1995,196.217,60.005,13.288
2017-11-23T17:49:01,42.805,6.029,4330,1995,196.263,60.019,13.288
2017-11-23T17:52:01,42.805,6.029,4330,1995,196.287,60.025,13.287
2017-11-23T17:55:01,42.805,6.029,4330,1995,196.340,60.041,13.286
2017-11-23T17:58:01,42.805,6.029,4330,1995,196.354,60.046,13.286
2017-11-23T18:01:01,42.805,6.029,4330,1995,196.213,60.002,13.286
2017-11-23T18:04:01,42.805,6.029,4330,1995,196.202,59.999,13.286
2017-11-23T18:07:01,42.805,6.029,4330,1995,196.305,60.031,13.286